When you browse on this site, cookies collect data to enhance your experience and personalize the content and advertising you see.
Visit our Privacy Policy to learn more. By continuing to use the site, you agree to this use of cookies and data.
  • En España
  • Lista de países
  • Para 7 días
  • Temperatura del agua
  • El tiempo en el mapa
  • Informadores
  • user-avatar
    Iniciar sesión

    Tiempo cada hora Cervinia

    Hoy, 20 Septiembre, Viernes

    Tiempo Temperatura Precipitaciones Viento Presión Humedad
    00:00 +14°C° 0 mm 1 mps 676 mmHg 93%
    01:00 +14°C° 0 mm 1 mps 676 mmHg 93%
    02:00 +13°C° 0 mm 1 mps 676 mmHg 92%
    03:00 +13°C° 0 mm 1 mps 676 mmHg 92%
    04:00 +13°C° 0 mm 1 mps 676 mmHg 91%
    05:00 +12°C° 0 mm 0 mps 676 mmHg 91%
    06:00 +12°C° 0 mm 0 mps 676 mmHg 90%
    07:00 +14°C° 0 mm 1 mps 676 mmHg 82%
    08:00 +16°C° 0 mm 1 mps 677 mmHg 74%
    09:00 +19°C° 0 mm 1 mps 677 mmHg 66%
    10:00 +20°C° 0 mm 1 mps 677 mmHg 64%
    11:00 +19°C° 0 mm 2 mps 677 mmHg 61%
    12:00 +20°C° 0 mm 2 mps 677 mmHg 59%
    13:00 +20°C° 0 mm 2 mps 676 mmHg 61%
    14:00 +20°C° 0 mm 2 mps 676 mmHg 64%
    15:00 +19°C° 0 mm 2 mps 676 mmHg 67%
    16:00 +19°C° 0 mm 1 mps 675 mmHg 75%
    17:00 +16°C° 0 mm 1 mps 675 mmHg 84%
    18:00 +14°C° 0 mm 1 mps 674 mmHg 93%
    19:00 +13°C° 0 mm 1 mps 675 mmHg 94%
    20:00 +12°C° 0 mm 0 mps 675 mmHg 95%
    21:00 +12°C° 0 mm 0 mps 675 mmHg 95%
    22:00 +11°C° 0 mm 0 mps 675 mmHg 95%
    23:00 +11°C° 0 mm 0 mps 675 mmHg 95%

    Mañana, 21 Septiembre, Sábado

    Tiempo Temperatura Precipitaciones Viento Presión Humedad
    00:00 +12°C° 0 mm 1 mps 675 mmHg 95%
    01:00 +13°C° 0 mm 1 mps 675 mmHg 94%
    02:00 +13°C° 0 mm 1 mps 675 mmHg 94%
    03:00 +13°C° 0 mm 1 mps 675 mmHg 93%
    04:00 +13°C° 0 mm 1 mps 674 mmHg 92%
    05:00 +13°C° 0 mm 1 mps 674 mmHg 91%
    06:00 +13°C° 0 mm 1 mps 674 mmHg 90%
    07:00 +14°C° 0 mm 1 mps 674 mmHg 84%
    08:00 +16°C° 0 mm 1 mps 675 mmHg 77%
    09:00 +18°C° 0 mm 1 mps 675 mmHg 71%
    10:00 +19°C° 0 mm 1 mps 675 mmHg 69%
    11:00 +19°C° 0 mm 1 mps 675 mmHg 67%
    12:00 +19°C° 0 mm 2 mps 674 mmHg 65%
    13:00 +19°C° 0 mm 2 mps 674 mmHg 67%
    14:00 +18°C° 0 mm 2 mps 673 mmHg 70%
    15:00 +18°C° 0 mm 2 mps 673 mmHg 72%
    16:00 +16°C° 0 mm 2 mps 673 mmHg 78%
    17:00 +14°C° 0 mm 3 mps 672 mmHg 84%
    18:00 +13°C° 0 mm 3 mps 672 mmHg 90%
    19:00 +12°C° 0 mm 3 mps 672 mmHg 90%
    20:00 +12°C° 0 mm 3 mps 672 mmHg 90%
    21:00 +12°C° 0 mm 3 mps 672 mmHg 90%
    22:00 +13°C° 0.1 mm 2 mps 672 mmHg 91%
    23:00 +13°C° 0.1 mm 2 mps 672 mmHg 92%

    Pasado mañana, 22 Septiembre, Domingo

    Tiempo Temperatura Precipitaciones Viento Presión Humedad
    00:00 +13°C° 0.1 mm 2 mps 672 mmHg 93%
    01:00 +13°C° 0 mm 2 mps 672 mmHg 93%
    02:00 +13°C° 0 mm 2 mps 671 mmHg 93%
    03:00 +13°C° 0 mm 2 mps 671 mmHg 94%
    04:00 +13°C° 0 mm 2 mps 671 mmHg 94%
    05:00 +13°C° 0 mm 2 mps 671 mmHg 94%
    06:00 +13°C° 0 mm 2 mps 671 mmHg 94%
    07:00 +14°C° 0 mm 2 mps 671 mmHg 90%
    08:00 +15°C° 0 mm 2 mps 671 mmHg 87%
    09:00 +16°C° 0 mm 2 mps 671 mmHg 83%
    10:00 +16°C° 0 mm 2 mps 671 mmHg 81%
    11:00 +17°C° 0 mm 2 mps 671 mmHg 79%
    12:00 +18°C° 0 mm 2 mps 671 mmHg 76%
    13:00 +17°C° 0 mm 2 mps 670 mmHg 78%
    14:00 +17°C° 0 mm 2 mps 670 mmHg 80%
    15:00 +17°C° 0 mm 2 mps 669 mmHg 82%
    16:00 +16°C° 0 mm 2 mps 669 mmHg 86%
    17:00 +15°C° 0 mm 2 mps 669 mmHg 90%
    18:00 +14°C° 0 mm 2 mps 669 mmHg 93%
    19:00 +14°C° 0.1 mm 1 mps 669 mmHg 94%
    20:00 +14°C° 0.1 mm 1 mps 670 mmHg 94%
    21:00 +14°C° 0.1 mm 1 mps 670 mmHg 95%
    22:00 +14°C° 1.2 mm 1 mps 670 mmHg 96%
    23:00 +14°C° 1.2 mm 1 mps 670 mmHg 96%

    23 Septiembre, Lunes

    Tiempo Temperatura Precipitaciones Viento Presión Humedad
    00:00 +13°C° 1.2 mm 2 mps 670 mmHg 97%
    01:00 +13°C° 2.4 mm 2 mps 670 mmHg 96%
    02:00 +12°C° 2.4 mm 2 mps 669 mmHg 95%
    03:00 +12°C° 2.4 mm 2 mps 669 mmHg 94%
    04:00 +11°C° 0.2 mm 3 mps 669 mmHg 93%
    05:00 +11°C° 0.2 mm 3 mps 669 mmHg 92%
    06:00 +10°C° 0.2 mm 3 mps 669 mmHg 91%
    07:00 +11°C° 0.1 mm 3 mps 669 mmHg 86%
    08:00 +12°C° 0.1 mm 3 mps 670 mmHg 81%
    09:00 +13°C° 0.1 mm 3 mps 670 mmHg 76%
    10:00 +13°C° 0.1 mm 3 mps 670 mmHg 73%
    11:00 +14°C° 0.1 mm 3 mps 670 mmHg 69%
    12:00 +14°C° 0.1 mm 3 mps 670 mmHg 66%
    13:00 +14°C° 0.1 mm 3 mps 670 mmHg 66%
    14:00 +14°C° 0.1 mm 3 mps 669 mmHg 67%
    15:00 +14°C° 0.1 mm 3 mps 669 mmHg 67%
    16:00 +13°C° 0 mm 3 mps 669 mmHg 71%
    17:00 +11°C° 0 mm 3 mps 669 mmHg 75%
    18:00 +10°C° 0 mm 3 mps 669 mmHg 79%
    19:00 +10°C° 0 mm 3 mps 669 mmHg 80%
    20:00 +9°C° 0 mm 3 mps 670 mmHg 80%
    21:00 +9°C° 0 mm 3 mps 670 mmHg 80%
    22:00 +8°C° 0 mm 3 mps 670 mmHg 78%
    23:00 +8°C° 0 mm 3 mps 670 mmHg 75%

    24 Septiembre, Martes

    Tiempo Temperatura Precipitaciones Viento Presión Humedad
    00:00 +8°C° 0 mm 2 mps 670 mmHg 73%
    01:00 +8°C° 0 mm 2 mps 670 mmHg 66%
    02:00 +8°C° 0 mm 2 mps 670 mmHg 60%
    03:00 +9°C° 0 mm 1 mps 670 mmHg 54%
    04:00 +10°C° 0 mm 1 mps 670 mmHg 51%
    05:00 +10°C° 0 mm 1 mps 670 mmHg 48%
    06:00 +11°C° 0 mm 1 mps 670 mmHg 46%
    07:00 +13°C° 0 mm 1 mps 670 mmHg 43%
    08:00 +15°C° 0 mm 1 mps 671 mmHg 41%
    09:00 +19°C° 0 mm 1 mps 671 mmHg 39%
    10:00 +20°C° 0 mm 1 mps 672 mmHg 38%
    11:00 +21°C° 0 mm 1 mps 672 mmHg 36%
    12:00 +21°C° 0 mm 2 mps 672 mmHg 35%
    13:00 +20°C° 0 mm 2 mps 672 mmHg 42%
    14:00 +19°C° 0 mm 2 mps 671 mmHg 48%
    15:00 +18°C° 0 mm 2 mps 671 mmHg 54%
    16:00 +17°C° 0.1 mm 2 mps 671 mmHg 60%
    17:00 +16°C° 0.1 mm 2 mps 671 mmHg 66%
    18:00 +15°C° 0.1 mm 2 mps 670 mmHg 71%
    19:00 +15°C° 0.6 mm 2 mps 670 mmHg 77%
    20:00 +15°C° 0.6 mm 2 mps 671 mmHg 83%
    21:00 +14°C° 0.6 mm 2 mps 671 mmHg 88%
    22:00 +15°C° 0.5 mm 1 mps 670 mmHg 90%
    23:00 +15°C° 0.5 mm 1 mps 670 mmHg 91%

    25 Septiembre, Miércoles

    Tiempo Temperatura Precipitaciones Viento Presión Humedad
    00:00 +15°C° 0.5 mm 1 mps 670 mmHg 92%
    01:00 +14°C° 0.3 mm 1 mps 670 mmHg 92%
    02:00 +14°C° 0.3 mm 1 mps 669 mmHg 92%
    03:00 +14°C° 0.3 mm 1 mps 669 mmHg 93%
    04:00 +14°C° 1.3 mm 1 mps 669 mmHg 93%
    05:00 +14°C° 1.3 mm 1 mps 669 mmHg 94%
    06:00 +14°C° 1.3 mm 2 mps 669 mmHg 94%
    07:00 +15°C° 0.9 mm 2 mps 669 mmHg 92%
    08:00 +15°C° 0.9 mm 2 mps 669 mmHg 89%
    09:00 +15°C° 0.9 mm 2 mps 670 mmHg 87%
    10:00 +16°C° 0.3 mm 2 mps 669 mmHg 83%
    11:00 +16°C° 0.3 mm 2 mps 669 mmHg 80%
    12:00 +17°C° 0.3 mm 2 mps 669 mmHg 76%
    13:00 +17°C° 0.2 mm 2 mps 669 mmHg 76%
    14:00 +17°C° 0.2 mm 2 mps 668 mmHg 76%
    15:00 +17°C° 0.2 mm 2 mps 668 mmHg 76%
    16:00 +15°C° 0 mm 2 mps 668 mmHg 80%
    17:00 +14°C° 0 mm 1 mps 668 mmHg 84%
    18:00 +13°C° 0 mm 1 mps 668 mmHg 89%
    19:00 +12°C° 0 mm 1 mps 668 mmHg 88%
    20:00 +12°C° 0 mm 1 mps 668 mmHg 87%
    21:00 +12°C° 0 mm 1 mps 668 mmHg 87%
    22:00 +12°C° 0 mm 1 mps 668 mmHg 86%
    23:00 +12°C° 0 mm 1 mps 668 mmHg 85%
    Mostrar más